Mombasa, Kenya

2:03 AM EAT on September 28, 2016 (GMT +0300)
Moi

Weather History for HKMO - October, 2013

Change the Weather History Date:

Tuesday, October 22, 2013

  Actual Average Record
Temperature  
Mean Temperature 78 °F -  
Max Temperature 87 °F 82 °F 87 °F (1996)
Min Temperature 70 °F 71 °F 69 °F (1999)
Cooling Degree Days 14    
Growing Degree Days 28 (Base 50)    
Moisture  
Dew Point 70 °F    
Average Humidity 71    
Maximum Humidity 89    
Minimum Humidity 48    
Precipitation  
Precipitation 0.00 in - - ()
Sea Level Pressure  
Sea Level Pressure 29.89 in    
Wind  
Wind Speed 6 mph ()    
Max Wind Speed 18 mph    
Max Gust Speed -    
Visibility 8.5 miles    
Events      
Averages and records for this station are not official NWS values.
T = Trace of Precipitation, MM = Missing Value Source: Averaged Metar Reports

Daily Weather History Graph

Daily Weather History Graph

Search for Another Location

Airport or City:

Trip Planner

Search our weather history database for the weather conditions in past years. The results will help you decide how hot, cold, wet, or windy it might be!

Date:

Astronomy

Oct. 22, 2013 Rise Set
Actual Time 5:59 AM EAT 6:12 PM EAT
Civil Twilight 5:38 AM EAT 6:33 PM EAT
Nautical Twilight 5:13 AM EAT 6:58 PM EAT
Astronomical Twilight 4:49 AM EAT 7:22 PM EAT
Moon 9:11 PM EAT (10/22) 8:34 AM EAT (10/22)
Length of Visible Light 12h 55m
Length of Day
12h 13m
Waning Gibbous, 89% of the Moon is Illuminated
Oct 22
Waning Gibbous
Oct 27
Last Quarter
Nov 3
New
Nov 10
First Quarter
Nov 17
Full

Hourly Weather History & Observations

Time (EAT) Temp. Heat Index Dew Point Humidity Pressure Visibility Wind Dir Wind Speed Gust Speed Precip Events Conditions
12:00 AM 77.0 °F - 71.6 °F 83% 29.89 in 6.2 mi SSE 6.9 mph - N/A   Scattered Clouds
3:00 AM 74 °F - 71 °F 88% 29.87 in 19 mi Calm Calm - -   Scattered Clouds
3:00 AM 75.2 °F - 71.6 °F 89% 29.86 in 6.2 mi Calm Calm - N/A   Partly Cloudy
5:00 AM 73.4 °F - 69.8 °F 88% 29.89 in 6.2 mi Calm Calm - N/A   Partly Cloudy
6:00 AM 73.4 °F - 69.8 °F 88% 29.92 in 6.2 mi WSW 4.6 mph - N/A   Scattered Clouds
8:00 AM 77.0 °F - 71.6 °F 83% 29.95 in 6.2 mi West 5.8 mph - N/A   Partly Cloudy
9:00 AM 81 °F - 71 °F 64% 29.95 in 19 mi SSW 6.9 mph - -   Partly Cloudy
9:00 AM 80.6 °F 84.6 °F 71.6 °F 74% 29.95 in 6.2 mi SSW 6.9 mph - N/A   Scattered Clouds
10:00 AM 84.2 °F 88.4 °F 69.8 °F 62% 29.95 in 6.2 mi Calm Calm - N/A   Mostly Cloudy
11:00 AM 86.0 °F 89.4 °F 68.0 °F 55% 29.92 in 6.2 mi SSE 11.5 mph - N/A   Scattered Clouds
12:00 PM 86.0 °F 88.2 °F 66.2 °F 51% 29.92 in 6.2 mi SSE 11.5 mph - N/A   Partly Cloudy
1:00 PM 86.0 °F 89.4 °F 68.0 °F 55% 29.86 in 6.2 mi SE 18.4 mph - N/A   Partly Cloudy
2:00 PM 86.0 °F 89.4 °F 68.0 °F 55% 29.95 in 6.2 mi SSE 9.2 mph - N/A   Partly Cloudy
3:00 PM 85 °F - 68 °F 48% 29.83 in 19 mi SSE 13.8 mph - -   Scattered Clouds
3:00 PM 86.0 °F 89.4 °F 68.0 °F 55% 29.83 in 6.2 mi SSE 13.8 mph - N/A   Partly Cloudy
6:00 PM 80.6 °F 83.9 °F 69.8 °F 70% 29.83 in 6.2 mi SE 11.5 mph - N/A   Partly Cloudy
7:00 PM 78.8 °F - 71.6 °F 78% 29.83 in 6.2 mi ESE 9.2 mph - N/A   Partly Cloudy
8:00 PM 78.8 °F - 69.8 °F 74% 29.83 in 6.2 mi SE 9.2 mph - N/A   Partly Cloudy
9:00 PM 79 °F - 71 °F 72% 29.86 in 19 mi ESE 11.5 mph - -   Scattered Clouds
9:00 PM 78.8 °F - 71.6 °F 78% 29.86 in 6.2 mi ESE 11.5 mph - N/A   Partly Cloudy
10:00 PM 78.8 °F - 71.6 °F 78% 29.89 in 6.2 mi ESE 9.2 mph - N/A   Partly Cloudy
11:00 PM 78.8 °F - 73.4 °F 83% 29.89 in 6.2 mi East 5.8 mph - N/A   Partly Cloudy